Flag for Brazil Weather past 2 weeks in Itabuna, Bahia, Brazil

Now
86 °F

Passing clouds.


Feels Like: 91 °F
Forecast: 68 / 89 °F
Wind: 10 mph from East

Location: Salvador Aeroporto

Current Time: Mar 31, 2015 at 2:27:03 PM

Latest Report: Mar 31, 2015 at 2:00 PM


Visibility: N/A

Pressure: 29.92 "Hg

Humidity: 59%

Dew point: 70 °F

Location of ItabunaLocation

Historic Weather in Itabuna — Graph

°F

Itabuna temperature yesterday

Maximum temperature yesterday: 86 °F (at 10:00 AM)
Minimum temperature yesterday: 73 °F (at 5:00 AM)
Average temperature yesterday: 81 °F

Past Weeks' High & Low Weather Summary

 TemperatureHumidityPressure
High90 °F (Mar 23, 1:00 PM)89% (Mar 17, 4:00 AM)30.04 "Hg (Mar 17, 4:00 AM)
Low73 °F (Mar 21, 6:00 AM)52% (Mar 31, 9:00 AM)29.83 "Hg (Mar 16, 3:00 PM)
Average82 °F70%29.93 "Hg
* Reported Mar 16 1:00 PM — Mar 31 1:00 PM, Itabuna, Weather by CustomWeather, © 2015

Note: Actual official high and low records may vary slightly from our data, if they occured in-between our weather recording intervals... More about our weather records

Advertising

Itabuna weather history for previous 24 hours

 ConditionsComfort  
Time TempWeatherWind HumidityBarometerVisibility
1:00 PM
Tue, Mar 31
86 °FScattered clouds.9 mph55%29.92 "HgN/A
12:00 PM86 °FScattered clouds.13 mph52%29.95 "HgN/A
11:00 AM86 °FScattered clouds.13 mph55%29.98 "HgN/A
10:00 AM86 °FScattered clouds.14 mph55%29.98 "HgN/A
9:00 AM86 °FScattered clouds.13 mph52%29.98 "HgN/A
8:00 AM84 °FScattered clouds.5 mph58%29.98 "HgN/A
7:00 AM81 °FScattered clouds.1 mph70%29.95 "HgN/A
6:00 AM75 °FScattered clouds.2 mph78%29.95 "HgN/A
5:00 AM75 °FPassing clouds.No wind78%29.92 "HgN/A
4:00 AM75 °FPassing clouds.3 mph78%29.92 "HgN/A
3:00 AM75 °FPassing clouds.3 mph78%29.92 "HgN/A
2:00 AM77 °FPassing clouds.5 mph74%29.92 "HgN/A
1:00 AM79 °FPassing clouds.9 mph70%29.92 "HgN/A
12:00 AM79 °FPassing clouds.6 mph70%29.95 "HgN/A
11:00 PM
Mon, Mar 30
79 °FPassing clouds.6 mph70%29.95 "HgN/A
10:00 PM81 °FClear.9 mph66%29.95 "Hg10 mi
9:00 PM81 °FClear.7 mph66%29.92 "Hg10 mi
8:00 PM81 °FClear.9 mph66%29.89 "Hg10 mi
7:00 PM81 °FClear.8 mph66%29.89 "Hg10 mi
6:00 PM81 °FClear.9 mph62%29.89 "Hg10 mi
5:00 PM82 °FSunny.8 mph62%29.89 "Hg10 mi
4:00 PM84 °FPassing clouds.15 mph58%29.89 "HgN/A
3:00 PM86 °FPassing clouds.14 mph55%29.89 "HgN/A
2:00 PM86 °FPassing clouds.15 mph55%29.89 "HgN/A
Weather by CustomWeather, © 2015

See weather overviewHow to use our weather pages